Location: Riverside Cemetery
(38.3047°N, 99.7773°W)
Time: 14:33:35
(UTC+00:00)

Cosmos 1697 Rocket - Pass Details

Date: 19 September 2020
Orbit: 832 x 843 km, 71.0° (Epoch: 22 October)

Event Time Altitude Azimuth Distance (km) Brightness Sun altitude
Exits shadow 09:19:33 37° 27° (NNE) 1,271 3.9 -34.9°
Drops below altitude 10° 09:22:51 10° 24° (NNE) 2,447 5.7 -34.4°
Sets 09:25:18 0° 24° (NNE) 3,385 6.6 -34.0°
